590  
ASUS42 KKEY 202110  
RWRKEY  
 
FLORIDA KEYS REGIONAL WEATHER ROUNDUP  
NATIONAL WEATHER SERVICE KEY WEST FLORIDA  
400 PM EST SUN JAN 20 2019  
   
..SOUTH FLORIDA AND THE KEYS
 
 
 
CITY SKY/WX TMP DP RH WIND PRES REMARKS
 
FORT MYERS FAIR 63 50 62 NW22G30 29.99R  
SW REGIONAL AP FAIR 63 49 60 NW16G30 30.00R  
NAPLES PTSUNNY 66 51 58 NW25G33 30.01R  
MIAMI PTSUNNY 71 52 50 W15G23 29.96R  
WEST KENDALL FAIR 71 52 50 NW21 29.96R  
HOMESTEAD FAIR 71 53 53 W22G31 29.95R  
MARATHON FAIR 72 56 57 NW20G30 30.01R  
KEY WEST INTL FAIR 71 59 65 NW21G29 30.03R  
   
..INTERNATIONAL WEATHER
 
 
 
CITY SKY/WX TMP DP RH WIND PRES REMARKS
 
NASSAU CLOUDY 72 70 94 W14 29.95R  
HAVANA PTSUNNY 72 59 64 NW15 30.03S  
VARADERO CLOUDY 72 61 68 NW16 30.03R  
CANCUN PTSUNNY 72 55 56 N8 30.12S  
COZUMEL MOSUNNY 77 57 50 N18 30.10S  
KINGSTON MOSUNNY 82 64 54 S7 29.97S  
BELIZE CITY PTSUNNY 77 64 65 NW12 30.09F  
 
ADJACENT COASTAL WATERS...  
 
STATION/POSITION TIME SKY/WX TEMP WIND PRES WAVE
 
AIR SEA DIR/SP/G HT/PER  
(UTC) (F) (DEG/KT/KT) (MB) (FT/S)  
PULASKI SHOAL LI 2100 68 320/ 23/ 27 1017.5R  
SAND KEY 2050 69 1017.2R  
SOMBRERO KEY 2050 68 1015.9R  
LONG KEY 2100 67 70 320/ 24/ 29 1015.7R  
MOLASSES REEF 2100 68 75 320/ 26/ 28 1015.4R  
FOWEY ROCKS 2100 69 73 280/ 22/ 24 1014.9R  
BUOY 42097 2000 73 N/A 11/11  
 

 
 
 
CLICK HERE TO GO TO PREVIOUS BULLETINS.

The Nexlab FL Page Main Text Page